STARLINK-34476 (64364 NORAD) Tracking and Keplerian Element Data

This shows tracking and keplerian element data for the satellite.

Feedback or suggestion? Click here.




ElementValue
Catalog64364
NameSTARLINK-34476
Epoch Orbit2876
Epoch Day354.11637363
Epoch Year2025
RAAN235.0419
Inclination69.9994
Eccentricity0.0002966
Argument of Perigee265.5546
Mean Anonmoly94.5275
Mean Motion14.98347373
Decay Rate4.017E-05
L11 64364U 25126W 25354.11637363 .00004017 00000+0 34407-3 0 9990
L22 64364 69.9994 235.0419 0002966 265.5546 94.5275 14.98347373 28765



Live tracking and technical data element details for STARLINK-34476 (NORAD 64364). STARLINK-34476 can be tracked NOW for your location showing map with azimuth and elevation plus other details from your city location.







IsCatalogInMostPopularTable: catalog: 64364, numindb: 6
Update: records affected: 1



GetName: 64364 STARLINK-34476

Hit Count: updated at: Sat, 11 Apr 2026 21:57:17 GMT